This is the latest recevied weather packets stored in our database for station/object KF0FSA. If no packets are shown the sender has not sent any weather packets the latest 10 day(s).
| Time | Temp. | Humidity | Pressure | Rain* | Wind** | Luminosity | Snow |
|---|---|---|---|---|---|---|---|
| 1777767538 | 20.56° C | 23% | 957.2 hPa | 0 mm | - | 89 W/m² | - |
| 1777767238 | 20.56° C | 22% | 957.1 hPa | 0 mm | - | 123 W/m² | - |
| 1777767062 | 20.56° C | 22% | 957.3 hPa | 0 mm | - | 118 W/m² | - |
| 1777766638 | 20.56° C | 22% | 957.4 hPa | 0 mm | - | 109 W/m² | - |
| 1777766338 | 20.56° C | 23% | 957.4 hPa | 0 mm | - | 189 W/m² | - |
| 1777766035 | 20.56° C | 22% | 957.6 hPa | 0 mm | - | 180 W/m² | - |
| 1777765732 | 20.56° C | 22% | 957.7 hPa | 0 mm | - | 194 W/m² | - |
| 1777765433 | 20.56° C | 23% | 957.8 hPa | 0 mm | - | 195 W/m² | - |
| 1777765132 | 20.56° C | 22% | 957.8 hPa | 0 mm | - | 202 W/m² | - |
| 1777764832 | 20.56° C | 22% | 957.8 hPa | 0 mm | - | 199 W/m² | - |
| 1777764532 | 20.56° C | 22% | 957.9 hPa | 0 mm | - | 195 W/m² | - |
| 1777764232 | 20.56° C | 22% | 957.9 hPa | 0 mm | - | 257 W/m² | - |
| 1777763932 | 20.56° C | 22% | 958 hPa | 0 mm | - | 272 W/m² | - |
| 1777763633 | 20.56° C | 22% | 957.9 hPa | 0 mm | - | 286 W/m² | - |
| 1777763456 | 20.56° C | 23% | 957.9 hPa | 0 mm | - | 302 W/m² | - |
| 1777763033 | 21.11° C | 23% | 958.1 hPa | 0 mm | - | 316 W/m² | - |
| 1777762733 | 20.56° C | 23% | 958.1 hPa | 0 mm | - | 334 W/m² | - |
| 1777762432 | 20.56° C | 23% | 958.1 hPa | 0 mm | - | 351 W/m² | - |
| 1777762133 | 20.56° C | 24% | 958.2 hPa | 0 mm | - | 370 W/m² | - |
| 1777761832 | 20.56° C | 24% | 958.2 hPa | 0 mm | - | 385 W/m² | - |
| 1777761533 | 20.56° C | 24% | 958.4 hPa | 0 mm | - | 401 W/m² | - |
| 1777761230 | 21.11° C | 24% | 958.4 hPa | 0 mm | - | 412 W/m² | - |
| 1777761053 | 20.56° C | 25% | 958.5 hPa | 0 mm | - | 447 W/m² | - |
| 1777760630 | 20.56° C | 25% | 958.6 hPa | 0 mm | - | 493 W/m² | - |
| 1777760327 | 20° C | 26% | 958.5 hPa | 0 mm | - | 526 W/m² | - |
* Rain latest hour (hover to see other rain measurements)
** Current wind speed in m/s (hover to see current wind gust speed)